Location: Anna District 4 Election Precinct
(37.4833°N, 89.2195°W)
Time: 21:41:26
(UTC+00:00)

NOAA 12 - Pass Details

Date: 15 March 2021
Orbit: 795 x 815 km, 98.5° (Epoch: 15 April)

Event Time Altitude Azimuth Distance (km) Brightness Sun altitude
Rises 11:23:00 0° 24° (NNE) 3,337 7.7 -9.7°
Reaches altitude 10° 11:25:38 10° 36° (NE) 2,398 7.2 -9.1°
Maximum altitude 11:30:15 30° 96° (E) 1,413 6.3 -8.2°
Drops below altitude 10° 11:34:49 10° 157° (SSE) 2,373 6.8 -7.3°
Sets 11:37:24 0° 168° (SSE) 3,295 7.4 -6.8°
